owner,sensor,date,latitude,longitude,vertical_datum,wind_speed,wind_to_direction,wind_speed_of_gust,qcFlag 
NDBC,ioos:station:NOAA.NDBC:FWYF1:1,2015-10-01T00:00:00Z,25.5910,-80.0970,43.9,2.6,160.0,3.1,'1111122,1111122,1111122' 
NDBC,ioos:station:NOAA.NDBC:FWYF1:1,2015-10-01T01:00:00Z,25.5910,-80.0970,43.9,3.1,150.0,3.1,'1111122,1111122,1111122' 
NDBC,ioos:station:NOAA.NDBC:FWYF1:1,2015-10-01T02:00:00Z,25.5910,-80.0970,43.9,3.6,200.0,3.6,'1111122,1111122,1111122' 
NDBC,ioos:station:NOAA.NDBC:FWYF1:1,2015-10-01T03:00:00Z,25.5910,-80.0970,43.9,6.2,280.0,6.7,'1111122,1111122,1111122' 
NDBC,ioos:station:NOAA.NDBC:FWYF1:1,2015-10-01T04:00:00Z,25.5910,-80.0970,43.9,7.7,290.0,8.2,'1111122,1111122,1111122' 
NDBC,ioos:station:NOAA.NDBC:FWYF1:1,2015-10-01T05:00:00Z,25.5910,-80.0970,43.9,9.3,310.0,9.8,'1111122,1111122,1111122' 
NDBC,ioos:station:NOAA.NDBC:FWYF1:1,2015-10-01T06:00:00Z,25.5910,-80.0970,43.9,8.8,330.0,9.8,'1111122,1111122,1111122' 
NDBC,ioos:station:NOAA.NDBC:FWYF1:1,2015-10-01T09:00:00Z,25.5910,-80.0970,43.9,10.8,320.0,11.8,'1111122,1111122,1111122' 
NDBC,ioos:station:NOAA.NDBC:FWYF1:1,2015-10-01T10:00:00Z,25.5910,-80.0970,43.9,8.8,330.0,9.8,'1111122,1111122,1111122' 
NDBC,ioos:station:NOAA.NDBC:FWYF1:1,2015-10-01T12:00:00Z,25.5910,-80.0970,43.9,7.7,330.0,8.2,'1111122,1111122,1111122' 
NDBC,ioos:station:NOAA.NDBC:FWYF1:1,2015-10-01T15:00:00Z,25.5910,-80.0970,43.9,6.7,320.0,7.7,'1111122,1111122,1111122' 
NDBC,ioos:station:NOAA.NDBC:FWYF1:1,2015-10-01T16:00:00Z,25.5910,-80.0970,43.9,7.7,310.0,8.2,'1111122,1111122,1111122' 
NDBC,ioos:station:NOAA.NDBC:FWYF1:1,2015-10-01T18:00:00Z,25.5910,-80.0970,43.9,6.7,320.0,7.7,'1111122,1111122,1111122' 
NDBC,ioos:station:NOAA.NDBC:FWYF1:1,2015-10-01T19:00:00Z,25.5910,-80.0970,43.9,7.2,310.0,7.7,'1111122,1111122,1111122' 
NDBC,ioos:station:NOAA.NDBC:FWYF1:1,2015-10-01T20:00:00Z,25.5910,-80.0970,43.9,8.2,310.0,8.2,'1111122,1111122,1111122' 
NDBC,ioos:station:NOAA.NDBC:FWYF1:1,2015-10-01T21:00:00Z,25.5910,-80.0970,43.9,5.7,310.0,6.7,'1111122,1111122,1111122' 
NDBC,ioos:station:NOAA.NDBC:FWYF1:1,2015-10-01T22:00:00Z,25.5910,-80.0970,43.9,6.2,300.0,6.7,'1111122,1111122,1111122' 
NDBC,ioos:station:NOAA.NDBC:FWYF1:1,2015-10-01T23:00:00Z,25.5910,-80.0970,43.9,6.2,300.0,7.2,'1111122,1111122,1111122' 
NDBC,ioos:station:NOAA.NDBC:FWYF1:1,2015-10-02T01:00:00Z,25.5910,-80.0970,43.9,4.1,310.0,4.6,'1111122,1111122,1111122' 
NDBC,ioos:station:NOAA.NDBC:FWYF1:1,2015-10-02T02:00:00Z,25.5910,-80.0970,43.9,1.0,70.0,1.0,'1111122,1111122,1111122' 
NDBC,ioos:station:NOAA.NDBC:FWYF1:1,2015-10-02T03:00:00Z,25.5910,-80.0970,43.9,6.7,290.0,6.7,'1111122,1111122,1111122' 
NDBC,ioos:station:NOAA.NDBC:FWYF1:1,2015-10-02T04:00:00Z,25.5910,-80.0970,43.9,8.8,300.0,9.3,'1111122,1111122,1111122' 
NDBC,ioos:station:NOAA.NDBC:FWYF1:1,2015-10-02T05:00:00Z,25.5910,-80.0970,43.9,9.3,310.0,10.3,'1111122,1111122,1111122' 
NDBC,ioos:station:NOAA.NDBC:FWYF1:1,2015-10-02T06:00:00Z,25.5910,-80.0970,43.9,9.3,320.0,9.8,'1111122,1111122,1111122' 
NDBC,ioos:station:NOAA.NDBC:FWYF1:1,2015-10-02T08:00:00Z,25.5910,-80.0970,43.9,8.8,310.0,9.3,'1111122,1111122,1111122' 
NDBC,ioos:station:NOAA.NDBC:FWYF1:1,2015-10-02T09:00:00Z,25.5910,-80.0970,43.9,7.2,320.0,7.7,'1111122,1111122,1111122' 
NDBC,ioos:station:NOAA.NDBC:FWYF1:1,2015-10-02T10:00:00Z,25.5910,-80.0970,43.9,7.2,320.0,7.7,'1111122,1111122,1111122' 
NDBC,ioos:station:NOAA.NDBC:FWYF1:1,2015-10-02T11:00:00Z,25.5910,-80.0970,43.9,6.2,320.0,6.7,'1111122,1111122,1111122' 
NDBC,ioos:station:NOAA.NDBC:FWYF1:1,2015-10-02T12:00:00Z,25.5910,-80.0970,43.9,7.2,310.0,8.2,'1111122,1111122,1111122' 
NDBC,ioos:station:NOAA.NDBC:FWYF1:1,2015-10-02T13:00:00Z,25.5910,-80.0970,43.9,6.2,320.0,6.7,'1111122,1111122,1111122' 
NDBC,ioos:station:NOAA.NDBC:FWYF1:1,2015-10-02T14:00:00Z,25.5910,-80.0970,43.9,6.7,310.0,7.2,'1111122,1111122,1111122' 
NDBC,ioos:station:NOAA.NDBC:FWYF1:1,2015-10-02T16:00:00Z,25.5910,-80.0970,43.9,5.1,330.0,6.2,'1111122,1111122,1111122' 
NDBC,ioos:station:NOAA.NDBC:FWYF1:1,2015-10-02T17:00:00Z,25.5910,-80.0970,43.9,4.6,300.0,5.1,'1111122,1111122,1111122' 
NDBC,ioos:station:NOAA.NDBC:FWYF1:1,2015-10-02T20:00:00Z,25.5910,-80.0970,43.9,6.2,310.0,6.7,'1111122,1111122,1111122' 
NDBC,ioos:station:NOAA.NDBC:FWYF1:1,2015-10-02T21:00:00Z,25.5910,-80.0970,43.9,4.1,360.0,4.1,'1111122,1111122,1111122' 
NDBC,ioos:station:NOAA.NDBC:FWYF1:1,2015-10-02T22:00:00Z,25.5910,-80.0970,43.9,3.1,360.0,3.1,'1111122,1111122,1111122' 
NDBC,ioos:station:NOAA.NDBC:FWYF1:1,2015-10-02T23:00:00Z,25.5910,-80.0970,43.9,3.1,360.0,3.6,'1111122,1111122,1111122' 
NDBC,ioos:station:NOAA.NDBC:FWYF1:1,2015-10-03T04:00:00Z,25.5910,-80.0970,43.9,11.8,290.0,13.4,'1111122,1111122,1111122' 
NDBC,ioos:station:NOAA.NDBC:FWYF1:1,2015-10-03T05:00:00Z,25.5910,-80.0970,43.9,11.8,290.0,13.4,'1111122,1111122,1111122' 
NDBC,ioos:station:NOAA.NDBC:FWYF1:1,2015-10-03T06:00:00Z,25.5910,-80.0970,43.9,10.8,300.0,11.8,'1111122,1111122,1111122' 
NDBC,ioos:station:NOAA.NDBC:FWYF1:1,2015-10-03T07:00:00Z,25.5910,-80.0970,43.9,11.8,300.0,12.4,'1111122,1111122,1111122' 
NDBC,ioos:station:NOAA.NDBC:FWYF1:1,2015-10-03T08:00:00Z,25.5910,-80.0970,43.9,12.4,300.0,13.4,'1111122,1111122,1111122' 
NDBC,ioos:station:NOAA.NDBC:FWYF1:1,2015-10-03T09:00:00Z,25.5910,-80.0970,43.9,11.8,300.0,12.4,'1111122,1111122,1111122' 
NDBC,ioos:station:NOAA.NDBC:FWYF1:1,2015-10-03T10:00:00Z,25.5910,-80.0970,43.9,9.8,310.0,10.8,'1111122,1111122,1111122' 
NDBC,ioos:station:NOAA.NDBC:FWYF1:1,2015-10-03T11:00:00Z,25.5910,-80.0970,43.9,9.3,310.0,10.3,'1111122,1111122,1111122' 
NDBC,ioos:station:NOAA.NDBC:FWYF1:1,2015-10-03T12:00:00Z,25.5910,-80.0970,43.9,8.8,300.0,9.8,'1111122,1111122,1111122' 
NDBC,ioos:station:NOAA.NDBC:FWYF1:1,2015-10-03T13:00:00Z,25.5910,-80.0970,43.9,7.7,290.0,8.8,'1111122,1111122,1111122' 
NDBC,ioos:station:NOAA.NDBC:FWYF1:1,2015-10-03T14:00:00Z,25.5910,-80.0970,43.9,7.2,300.0,8.8,'1111122,1111122,1111122' 
NDBC,ioos:station:NOAA.NDBC:FWYF1:1,2015-10-03T15:00:00Z,25.5910,-80.0970,43.9,8.2,290.0,8.8,'1111122,1111122,1111122' 
NDBC,ioos:station:NOAA.NDBC:FWYF1:1,2015-10-03T16:00:00Z,25.5910,-80.0970,43.9,9.8,280.0,12.4,'1111122,1111122,1111122' 
NDBC,ioos:station:NOAA.NDBC:FWYF1:1,2015-10-03T18:00:00Z,25.5910,-80.0970,43.9,11.8,270.0,12.9,'1111122,1111122,1111122' 
NDBC,ioos:station:NOAA.NDBC:FWYF1:1,2015-10-03T19:00:00Z,25.5910,-80.0970,43.9,11.3,270.0,12.4,'1111122,1111122,1111122' 
NDBC,ioos:station:NOAA.NDBC:FWYF1:1,2015-10-03T20:00:00Z,25.5910,-80.0970,43.9,12.9,270.0,13.9,'1111122,1111122,1111122' 
NDBC,ioos:station:NOAA.NDBC:FWYF1:1,2015-10-03T21:00:00Z,25.5910,-80.0970,43.9,12.4,260.0,13.9,'1111122,1111122,1111122' 
NDBC,ioos:station:NOAA.NDBC:FWYF1:1,2015-10-03T23:00:00Z,25.5910,-80.0970,43.9,11.3,260.0,12.9,'1111122,1111122,1111122' 
NDBC,ioos:station:NOAA.NDBC:FWYF1:1,2015-10-04T02:00:00Z,25.5910,-80.0970,43.9,11.8,280.0,12.4,'1111122,1111122,1111122' 
NDBC,ioos:station:NOAA.NDBC:FWYF1:1,2015-10-04T04:00:00Z,25.5910,-80.0970,43.9,9.3,280.0,9.8,'1111122,1111122,1111122' 
NDBC,ioos:station:NOAA.NDBC:FWYF1:1,2015-10-04T05:00:00Z,25.5910,-80.0970,43.9,8.2,290.0,8.8,'1111122,1111122,1111122' 
NDBC,ioos:station:NOAA.NDBC:FWYF1:1,2015-10-04T06:00:00Z,25.5910,-80.0970,43.9,7.7,280.0,8.8,'1111122,1111122,1111122' 
NDBC,ioos:station:NOAA.NDBC:FWYF1:1,2015-10-04T09:00:00Z,25.5910,-80.0970,43.9,5.7,300.0,6.2,'1111122,1111122,1111122' 
NDBC,ioos:station:NOAA.NDBC:FWYF1:1,2015-10-04T10:00:00Z,25.5910,-80.0970,43.9,4.6,300.0,5.1,'1111122,1111122,1111122' 
NDBC,ioos:station:NOAA.NDBC:FWYF1:1,2015-10-04T11:00:00Z,25.5910,-80.0970,43.9,3.1,270.0,3.6,'1111122,1111122,1111122' 
NDBC,ioos:station:NOAA.NDBC:FWYF1:1,2015-10-04T12:00:00Z,25.5910,-80.0970,43.9,2.6,280.0,3.1,'1111122,1111122,1111122' 
NDBC,ioos:station:NOAA.NDBC:FWYF1:1,2015-10-04T13:00:00Z,25.5910,-80.0970,43.9,2.1,280.0,2.6,'1111122,1111122,1111122' 
NDBC,ioos:station:NOAA.NDBC:FWYF1:1,2015-10-04T14:00:00Z,25.5910,-80.0970,43.9,4.1,240.0,4.6,'1111122,1111122,1111122' 
NDBC,ioos:station:NOAA.NDBC:FWYF1:1,2015-10-04T15:00:00Z,25.5910,-80.0970,43.9,3.6,250.0,4.6,'1111122,1111122,1111122' 
NDBC,ioos:station:NOAA.NDBC:FWYF1:1,2015-10-04T16:00:00Z,25.5910,-80.0970,43.9,5.7,250.0,6.7,'1111122,1111122,1111122' 
NDBC,ioos:station:NOAA.NDBC:FWYF1:1,2015-10-04T17:00:00Z,25.5910,-80.0970,43.9,6.7,220.0,7.7,'1111122,1111122,1111122' 
NDBC,ioos:station:NOAA.NDBC:FWYF1:1,2015-10-04T18:00:00Z,25.5910,-80.0970,43.9,7.2,270.0,7.7,'1111122,1111122,1111122' 
NDBC,ioos:station:NOAA.NDBC:FWYF1:1,2015-10-04T19:00:00Z,25.5910,-80.0970,43.9,11.3,250.0,11.8,'1111122,1111122,1111122' 
NDBC,ioos:station:NOAA.NDBC:FWYF1:1,2015-10-04T20:00:00Z,25.5910,-80.0970,43.9,12.9,250.0,13.9,'1111122,1111122,1111122' 
NDBC,ioos:station:NOAA.NDBC:FWYF1:1,2015-10-04T21:00:00Z,25.5910,-80.0970,43.9,12.4,260.0,12.9,'1111122,1111122,1111122' 
NDBC,ioos:station:NOAA.NDBC:FWYF1:1,2015-10-04T22:00:00Z,25.5910,-80.0970,43.9,13.4,260.0,14.9,'1111122,1111122,1111122' 
NDBC,ioos:station:NOAA.NDBC:FWYF1:1,2015-10-05T02:00:00Z,25.5910,-80.0970,43.9,8.2,240.0,9.3,'1111122,1111122,1111122' 
NDBC,ioos:station:NOAA.NDBC:FWYF1:1,2015-10-05T04:00:00Z,25.5910,-80.0970,43.9,6.7,250.0,7.7,'1111122,1111122,1111122' 
NDBC,ioos:station:NOAA.NDBC:FWYF1:1,2015-10-05T05:00:00Z,25.5910,-80.0970,43.9,6.7,270.0,7.2,'1111122,1111122,1111122' 
NDBC,ioos:station:NOAA.NDBC:FWYF1:1,2015-10-05T08:00:00Z,25.5910,-80.0970,43.9,7.2,230.0,8.2,'1111122,1111122,1111122' 
NDBC,ioos:station:NOAA.NDBC:FWYF1:1,2015-10-05T11:00:00Z,25.5910,-80.0970,43.9,6.2,270.0,6.7,'1111122,1111122,1111122' 
NDBC,ioos:station:NOAA.NDBC:FWYF1:1,2015-10-05T12:00:00Z,25.5910,-80.0970,43.9,4.1,270.0,4.6,'1111122,1111122,1111122' 
NDBC,ioos:station:NOAA.NDBC:FWYF1:1,2015-10-05T13:00:00Z,25.5910,-80.0970,43.9,4.6,260.0,5.1,'1111122,1111122,1111122' 
NDBC,ioos:station:NOAA.NDBC:FWYF1:1,2015-10-05T14:00:00Z,25.5910,-80.0970,43.9,4.1,290.0,4.6,'1111122,1111122,1111122' 
NDBC,ioos:station:NOAA.NDBC:FWYF1:1,2015-10-05T15:00:00Z,25.5910,-80.0970,43.9,3.1,250.0,3.6,'1111122,1111122,1111122' 
NDBC,ioos:station:NOAA.NDBC:FWYF1:1,2015-10-05T16:00:00Z,25.5910,-80.0970,43.9,2.1,200.0,2.6,'1111122,1111122,1111122' 
NDBC,ioos:station:NOAA.NDBC:FWYF1:1,2015-10-05T17:00:00Z,25.5910,-80.0970,43.9,10.3,240.0,11.3,'1111122,1111122,1111122' 
NDBC,ioos:station:NOAA.NDBC:FWYF1:1,2015-10-05T18:00:00Z,25.5910,-80.0970,43.9,9.8,260.0,10.3,'1111122,1111122,1111122' 
NDBC,ioos:station:NOAA.NDBC:FWYF1:1,2015-10-05T19:00:00Z,25.5910,-80.0970,43.9,10.3,250.0,11.8,'1111122,1111122,1111122' 
NDBC,ioos:station:NOAA.NDBC:FWYF1:1,2015-10-05T20:00:00Z,25.5910,-80.0970,43.9,10.8,260.0,11.3,'1111122,1111122,1111122' 
NDBC,ioos:station:NOAA.NDBC:FWYF1:1,2015-10-05T21:00:00Z,25.5910,-80.0970,43.9,9.8,230.0,11.3,'1111122,1111122,1111122' 
NDBC,ioos:station:NOAA.NDBC:FWYF1:1,2015-10-05T22:00:00Z,25.5910,-80.0970,43.9,10.8,250.0,11.3,'1111122,1111122,1111122' 
NDBC,ioos:station:NOAA.NDBC:FWYF1:1,2015-10-05T23:00:00Z,25.5910,-80.0970,43.9,10.8,260.0,11.3,'1111122,1111122,1111122' 
NDBC,ioos:station:NOAA.NDBC:FWYF1:1,2015-10-06T00:00:00Z,25.5910,-80.0970,43.9,9.3,250.0,10.3,'1111122,1111122,1111122' 
NDBC,ioos:station:NOAA.NDBC:FWYF1:1,2015-10-06T01:00:00Z,25.5910,-80.0970,43.9,8.2,270.0,9.3,'1111122,1111122,1111122' 
NDBC,ioos:station:NOAA.NDBC:FWYF1:1,2015-10-06T02:00:00Z,25.5910,-80.0970,43.9,7.2,260.0,7.7,'1111122,1111122,1111122' 
NDBC,ioos:station:NOAA.NDBC:FWYF1:1,2015-10-06T03:00:00Z,25.5910,-80.0970,43.9,5.7,260.0,6.7,'1111122,1111122,1111122' 
NDBC,ioos:station:NOAA.NDBC:FWYF1:1,2015-10-06T04:00:00Z,25.5910,-80.0970,43.9,4.6,260.0,5.1,'1111122,1111122,1111122' 
NDBC,ioos:station:NOAA.NDBC:FWYF1:1,2015-10-06T05:00:00Z,25.5910,-80.0970,43.9,5.1,250.0,5.7,'1111122,1111122,1111122' 
NDBC,ioos:station:NOAA.NDBC:FWYF1:1,2015-10-06T06:00:00Z,25.5910,-80.0970,43.9,5.1,250.0,5.7,'1111122,1111122,1111122' 
NDBC,ioos:station:NOAA.NDBC:FWYF1:1,2015-10-06T10:00:00Z,25.5910,-80.0970,43.9,6.2,230.0,6.7,'1111122,1111122,1111122' 
NDBC,ioos:station:NOAA.NDBC:FWYF1:1,2015-10-06T11:00:00Z,25.5910,-80.0970,43.9,9.3,270.0,9.8,'1111122,1111122,1111122' 
NDBC,ioos:station:NOAA.NDBC:FWYF1:1,2015-10-06T14:00:00Z,25.5910,-80.0970,43.9,3.6,240.0,4.1,'1111122,1111122,1111122' 
NDBC,ioos:station:NOAA.NDBC:FWYF1:1,2015-10-06T15:00:00Z,25.5910,-80.0970,43.9,4.1,230.0,4.1,'1111122,1111122,1111122' 
NDBC,ioos:station:NOAA.NDBC:FWYF1:1,2015-10-06T16:00:00Z,25.5910,-80.0970,43.9,3.1,220.0,3.6,'1111122,1111122,1111122' 
NDBC,ioos:station:NOAA.NDBC:FWYF1:1,2015-10-06T17:00:00Z,25.5910,-80.0970,43.9,3.1,210.0,3.6,'1111122,1111122,1111122' 
NDBC,ioos:station:NOAA.NDBC:FWYF1:1,2015-10-06T18:00:00Z,25.5910,-80.0970,43.9,7.7,260.0,8.2,'1111122,1111122,1111122' 
NDBC,ioos:station:NOAA.NDBC:FWYF1:1,2015-10-06T19:00:00Z,25.5910,-80.0970,43.9,3.1,250.0,3.6,'1111122,1111122,1111122' 
NDBC,ioos:station:NOAA.NDBC:FWYF1:1,2015-10-06T20:00:00Z,25.5910,-80.0970,43.9,5.1,200.0,5.7,'1111122,1111122,1111122' 
NDBC,ioos:station:NOAA.NDBC:FWYF1:1,2015-10-06T21:00:00Z,25.5910,-80.0970,43.9,5.7,180.0,6.2,'1111122,1111122,1111122' 
NDBC,ioos:station:NOAA.NDBC:FWYF1:1,2015-10-06T22:00:00Z,25.5910,-80.0970,43.9,6.7,190.0,7.2,'1111122,1111122,1111122' 
NDBC,ioos:station:NOAA.NDBC:FWYF1:1,2015-10-07T00:00:00Z,25.5910,-80.0970,43.9,3.6,130.0,4.1,'1111122,1111122,1111122' 
NDBC,ioos:station:NOAA.NDBC:FWYF1:1,2015-10-07T01:00:00Z,25.5910,-80.0970,43.9,8.8,230.0,9.3,'1111122,1111122,1111122' 
NDBC,ioos:station:NOAA.NDBC:FWYF1:1,2015-10-07T02:00:00Z,25.5910,-80.0970,43.9,6.7,240.0,7.2,'1111122,1111122,1111122' 
NDBC,ioos:station:NOAA.NDBC:FWYF1:1,2015-10-07T03:00:00Z,25.5910,-80.0970,43.9,5.1,260.0,5.7,'1111122,1111122,1111122' 
NDBC,ioos:station:NOAA.NDBC:FWYF1:1,2015-10-07T04:00:00Z,25.5910,-80.0970,43.9,4.1,280.0,4.1,'1111122,1111122,1111122' 
NDBC,ioos:station:NOAA.NDBC:FWYF1:1,2015-10-07T05:00:00Z,25.5910,-80.0970,43.9,3.6,290.0,4.1,'1111122,1111122,1111122' 
NDBC,ioos:station:NOAA.NDBC:FWYF1:1,2015-10-07T06:00:00Z,25.5910,-80.0970,43.9,3.1,270.0,3.1,'1111122,1111122,1111122' 
NDBC,ioos:station:NOAA.NDBC:FWYF1:1,2015-10-07T07:00:00Z,25.5910,-80.0970,43.9,3.6,260.0,4.1,'1111122,1111122,1111122' 
NDBC,ioos:station:NOAA.NDBC:FWYF1:1,2015-10-07T09:00:00Z,25.5910,-80.0970,43.9,2.6,280.0,3.1,'1111122,1111122,1111122' 
NDBC,ioos:station:NOAA.NDBC:FWYF1:1,2015-10-07T10:00:00Z,25.5910,-80.0970,43.9,2.6,280.0,3.1,'1111122,1111122,1111122' 
NDBC,ioos:station:NOAA.NDBC:FWYF1:1,2015-10-07T12:00:00Z,25.5910,-80.0970,43.9,1.5,280.0,2.6,'1111122,1111122,1111122' 
NDBC,ioos:station:NOAA.NDBC:FWYF1:1,2015-10-07T13:00:00Z,25.5910,-80.0970,43.9,2.1,330.0,2.1,'1111122,1111122,1111122' 
NDBC,ioos:station:NOAA.NDBC:FWYF1:1,2015-10-07T15:00:00Z,25.5910,-80.0970,43.9,1.0,320.0,1.0,'1111122,1111122,1111122' 
NDBC,ioos:station:NOAA.NDBC:FWYF1:1,2015-10-07T20:00:00Z,25.5910,-80.0970,43.9,3.6,110.0,4.1,'1111122,1111122,1111122' 
NDBC,ioos:station:NOAA.NDBC:FWYF1:1,2015-10-07T21:00:00Z,25.5910,-80.0970,43.9,2.6,130.0,3.6,'1111122,1111122,1111122' 
NDBC,ioos:station:NOAA.NDBC:FWYF1:1,2015-10-07T22:00:00Z,25.5910,-80.0970,43.9,3.1,20.0,3.6,'1111122,1111122,1111122' 
NDBC,ioos:station:NOAA.NDBC:FWYF1:1,2015-10-08T00:00:00Z,25.5910,-80.0970,43.9,2.1,130.0,2.1,'1111122,1111122,1111122' 
NDBC,ioos:station:NOAA.NDBC:FWYF1:1,2015-10-08T01:00:00Z,25.5910,-80.0970,43.9,3.1,120.0,3.6,'1111122,1111122,1111122' 
NDBC,ioos:station:NOAA.NDBC:FWYF1:1,2015-10-08T02:00:00Z,25.5910,-80.0970,43.9,2.6,90.0,3.1,'1111122,1111122,1111122' 
NDBC,ioos:station:NOAA.NDBC:FWYF1:1,2015-10-08T03:00:00Z,25.5910,-80.0970,43.9,6.2,50.0,6.7,'1111122,1111122,1111122' 
NDBC,ioos:station:NOAA.NDBC:FWYF1:1,2015-10-08T04:00:00Z,25.5910,-80.0970,43.9,4.1,90.0,4.1,'1111122,1111122,1111122' 
NDBC,ioos:station:NOAA.NDBC:FWYF1:1,2015-10-08T05:00:00Z,25.5910,-80.0970,43.9,3.6,80.0,4.1,'1111122,1111122,1111122' 
NDBC,ioos:station:NOAA.NDBC:FWYF1:1,2015-10-08T06:00:00Z,25.5910,-80.0970,43.9,2.1,140.0,2.6,'1111122,1111122,1111122' 
NDBC,ioos:station:NOAA.NDBC:FWYF1:1,2015-10-08T07:00:00Z,25.5910,-80.0970,43.9,3.6,160.0,4.6,'1111122,1111122,1111122' 
NDBC,ioos:station:NOAA.NDBC:FWYF1:1,2015-10-08T08:00:00Z,25.5910,-80.0970,43.9,4.6,150.0,5.1,'1111122,1111122,1111122' 
NDBC,ioos:station:NOAA.NDBC:FWYF1:1,2015-10-08T09:00:00Z,25.5910,-80.0970,43.9,3.6,160.0,4.1,'1111122,1111122,1111122' 
NDBC,ioos:station:NOAA.NDBC:FWYF1:1,2015-10-08T10:00:00Z,25.5910,-80.0970,43.9,2.6,160.0,3.6,'1111122,1111122,1111122' 
NDBC,ioos:station:NOAA.NDBC:FWYF1:1,2015-10-08T11:00:00Z,25.5910,-80.0970,43.9,2.6,180.0,3.1,'1111122,1111122,1111122' 
NDBC,ioos:station:NOAA.NDBC:FWYF1:1,2015-10-08T12:00:00Z,25.5910,-80.0970,43.9,2.6,120.0,3.1,'1111122,1111122,1111122' 
NDBC,ioos:station:NOAA.NDBC:FWYF1:1,2015-10-08T13:00:00Z,25.5910,-80.0970,43.9,2.1,130.0,2.1,'1111122,1111122,1111122' 
NDBC,ioos:station:NOAA.NDBC:FWYF1:1,2015-10-08T14:00:00Z,25.5910,-80.0970,43.9,1.5,160.0,2.1,'1111122,1111122,1111122' 
NDBC,ioos:station:NOAA.NDBC:FWYF1:1,2015-10-08T15:00:00Z,25.5910,-80.0970,43.9,1.5,170.0,1.5,'1111122,1111122,1111122' 
NDBC,ioos:station:NOAA.NDBC:FWYF1:1,2015-10-08T16:00:00Z,25.5910,-80.0970,43.9,1.5,170.0,2.1,'1111122,1111122,1111122' 
NDBC,ioos:station:NOAA.NDBC:FWYF1:1,2015-10-08T17:00:00Z,25.5910,-80.0970,43.9,0.0,-9999.0,0.5,'1114422,1111122,1111122' 
NDBC,ioos:station:NOAA.NDBC:FWYF1:1,2015-10-08T18:00:00Z,25.5910,-80.0970,43.9,2.6,100.0,3.1,'1111122,1111122,1111122' 
NDBC,ioos:station:NOAA.NDBC:FWYF1:1,2015-10-08T19:00:00Z,25.5910,-80.0970,43.9,3.6,110.0,4.1,'1111122,1111122,1111122' 
NDBC,ioos:station:NOAA.NDBC:FWYF1:1,2015-10-08T21:00:00Z,25.5910,-80.0970,43.9,3.6,110.0,4.1,'1111122,1111122,1111122' 
NDBC,ioos:station:NOAA.NDBC:FWYF1:1,2015-10-08T22:00:00Z,25.5910,-80.0970,43.9,3.1,90.0,3.6,'1111122,1111122,1111122' 
NDBC,ioos:station:NOAA.NDBC:FWYF1:1,2015-10-09T00:00:00Z,25.5910,-80.0970,43.9,3.1,120.0,3.6,'1111122,1111122,1111122' 
NDBC,ioos:station:NOAA.NDBC:FWYF1:1,2015-10-09T01:00:00Z,25.5910,-80.0970,43.9,2.6,110.0,3.1,'1111122,1111122,1111122' 
NDBC,ioos:station:NOAA.NDBC:FWYF1:1,2015-10-09T02:00:00Z,25.5910,-80.0970,43.9,2.6,80.0,2.6,'1111122,1111122,1111122' 
NDBC,ioos:station:NOAA.NDBC:FWYF1:1,2015-10-09T03:00:00Z,25.5910,-80.0970,43.9,3.6,100.0,4.1,'1111122,1111122,1111122' 
NDBC,ioos:station:NOAA.NDBC:FWYF1:1,2015-10-09T04:00:00Z,25.5910,-80.0970,43.9,5.1,120.0,5.7,'1111122,1111122,1111122' 
NDBC,ioos:station:NOAA.NDBC:FWYF1:1,2015-10-09T06:00:00Z,25.5910,-80.0970,43.9,2.1,90.0,2.6,'1111122,1111122,1111122' 
NDBC,ioos:station:NOAA.NDBC:FWYF1:1,2015-10-09T07:00:00Z,25.5910,-80.0970,43.9,3.6,130.0,4.1,'1111122,1111122,1111122' 
NDBC,ioos:station:NOAA.NDBC:FWYF1:1,2015-10-09T08:00:00Z,25.5910,-80.0970,43.9,4.1,130.0,4.6,'1111122,1111122,1111122' 
NDBC,ioos:station:NOAA.NDBC:FWYF1:1,2015-10-09T09:00:00Z,25.5910,-80.0970,43.9,3.1,130.0,3.1,'1111122,1111122,1111122' 
NDBC,ioos:station:NOAA.NDBC:FWYF1:1,2015-10-09T10:00:00Z,25.5910,-80.0970,43.9,2.1,140.0,2.6,'1111122,1111122,1111122' 
NDBC,ioos:station:NOAA.NDBC:FWYF1:1,2015-10-09T11:00:00Z,25.5910,-80.0970,43.9,0.0,-9999.0,0.5,'1114422,1111122,1111122' 
NDBC,ioos:station:NOAA.NDBC:FWYF1:1,2015-10-09T12:00:00Z,25.5910,-80.0970,43.9,1.0,80.0,1.5,'1111122,1111122,1111122' 
NDBC,ioos:station:NOAA.NDBC:FWYF1:1,2015-10-09T13:00:00Z,25.5910,-80.0970,43.9,0.0,-9999.0,0.5,'1114422,1111122,1111122' 
NDBC,ioos:station:NOAA.NDBC:FWYF1:1,2015-10-09T14:00:00Z,25.5910,-80.0970,43.9,1.0,360.0,1.0,'1111122,1111122,1111122' 
NDBC,ioos:station:NOAA.NDBC:FWYF1:1,2015-10-09T15:00:00Z,25.5910,-80.0970,43.9,1.5,360.0,2.1,'1111122,1111122,1111122' 
NDBC,ioos:station:NOAA.NDBC:FWYF1:1,2015-10-09T16:00:00Z,25.5910,-80.0970,43.9,0.5,360.0,0.5,'1111122,1111122,1111122' 
NDBC,ioos:station:NOAA.NDBC:FWYF1:1,2015-10-09T17:00:00Z,25.5910,-80.0970,43.9,0.0,-9999.0,0.5,'1114422,1111122,1111122' 
NDBC,ioos:station:NOAA.NDBC:FWYF1:1,2015-10-09T18:00:00Z,25.5910,-80.0970,43.9,1.5,200.0,2.1,'1111122,1111122,1111122' 
NDBC,ioos:station:NOAA.NDBC:FWYF1:1,2015-10-09T19:00:00Z,25.5910,-80.0970,43.9,2.6,190.0,3.1,'1111122,1111122,1111122' 
NDBC,ioos:station:NOAA.NDBC:FWYF1:1,2015-10-09T20:00:00Z,25.5910,-80.0970,43.9,1.0,190.0,1.5,'1111122,1111122,1111122' 
NDBC,ioos:station:NOAA.NDBC:FWYF1:1,2015-10-09T21:00:00Z,25.5910,-80.0970,43.9,1.0,30.0,1.5,'1111122,1111122,1111122' 
NDBC,ioos:station:NOAA.NDBC:FWYF1:1,2015-10-11T00:00:00Z,25.5910,-80.0970,43.9,6.2,280.0,6.7,'1111122,1111122,1111122' 
NDBC,ioos:station:NOAA.NDBC:FWYF1:1,2015-10-11T03:00:00Z,25.5910,-80.0970,43.9,5.7,260.0,6.2,'1111122,1111122,1111122' 
NDBC,ioos:station:NOAA.NDBC:FWYF1:1,2015-10-11T04:00:00Z,25.5910,-80.0970,43.9,5.1,270.0,5.7,'1111122,1111122,1111122' 
NDBC,ioos:station:NOAA.NDBC:FWYF1:1,2015-10-11T05:00:00Z,25.5910,-80.0970,43.9,5.7,260.0,6.2,'1111122,1111122,1111122' 
NDBC,ioos:station:NOAA.NDBC:FWYF1:1,2015-10-11T06:00:00Z,25.5910,-80.0970,43.9,5.7,270.0,6.2,'1111122,1111122,1111122' 
NDBC,ioos:station:NOAA.NDBC:FWYF1:1,2015-10-11T07:00:00Z,25.5910,-80.0970,43.9,5.1,270.0,5.7,'1111122,1111122,1111122' 
NDBC,ioos:station:NOAA.NDBC:FWYF1:1,2015-10-11T10:00:00Z,25.5910,-80.0970,43.9,3.6,260.0,4.1,'1111122,1111122,1111122' 
NDBC,ioos:station:NOAA.NDBC:FWYF1:1,2015-10-11T11:00:00Z,25.5910,-80.0970,43.9,5.7,290.0,5.7,'1111122,1111122,1111122' 
NDBC,ioos:station:NOAA.NDBC:FWYF1:1,2015-10-11T12:00:00Z,25.5910,-80.0970,43.9,5.7,300.0,5.7,'1111122,1111122,1111122' 
NDBC,ioos:station:NOAA.NDBC:FWYF1:1,2015-10-11T13:00:00Z,25.5910,-80.0970,43.9,4.6,300.0,4.6,'1111122,1111122,1111122' 
NDBC,ioos:station:NOAA.NDBC:FWYF1:1,2015-10-11T14:00:00Z,25.5910,-80.0970,43.9,4.1,320.0,4.1,'1111122,1111122,1111122' 
NDBC,ioos:station:NOAA.NDBC:FWYF1:1,2015-10-11T15:00:00Z,25.5910,-80.0970,43.9,3.6,320.0,4.1,'1111122,1111122,1111122' 
NDBC,ioos:station:NOAA.NDBC:FWYF1:1,2015-10-11T16:00:00Z,25.5910,-80.0970,43.9,2.6,310.0,3.1,'1111122,1111122,1111122' 
NDBC,ioos:station:NOAA.NDBC:FWYF1:1,2015-10-11T17:00:00Z,25.5910,-80.0970,43.9,1.5,10.0,1.5,'1111122,1111122,1111122' 
NDBC,ioos:station:NOAA.NDBC:FWYF1:1,2015-10-11T18:00:00Z,25.5910,-80.0970,43.9,2.1,80.0,2.6,'1111122,1111122,1111122' 
NDBC,ioos:station:NOAA.NDBC:FWYF1:1,2015-10-11T19:00:00Z,25.5910,-80.0970,43.9,1.0,90.0,1.5,'1111122,1111122,1111122' 
NDBC,ioos:station:NOAA.NDBC:FWYF1:1,2015-10-11T20:00:00Z,25.5910,-80.0970,43.9,5.1,220.0,6.2,'1111122,1111122,1111122' 
NDBC,ioos:station:NOAA.NDBC:FWYF1:1,2015-10-11T21:00:00Z,25.5910,-80.0970,43.9,3.6,150.0,4.1,'1111122,1111122,1111122' 
NDBC,ioos:station:NOAA.NDBC:FWYF1:1,2015-10-11T22:00:00Z,25.5910,-80.0970,43.9,5.1,160.0,5.7,'1111122,1111122,1111122' 
NDBC,ioos:station:NOAA.NDBC:FWYF1:1,2015-10-11T23:00:00Z,25.5910,-80.0970,43.9,4.6,160.0,5.1,'1111122,1111122,1111122' 
NDBC,ioos:station:NOAA.NDBC:FWYF1:1,2015-10-12T00:00:00Z,25.5910,-80.0970,43.9,4.6,160.0,4.6,'1111122,1111122,1111122' 
NDBC,ioos:station:NOAA.NDBC:FWYF1:1,2015-10-12T01:00:00Z,25.5910,-80.0970,43.9,4.1,150.0,4.6,'1111122,1111122,1111122' 
NDBC,ioos:station:NOAA.NDBC:FWYF1:1,2015-10-12T02:00:00Z,25.5910,-80.0970,43.9,5.1,180.0,5.1,'1111122,1111122,1111122' 
NDBC,ioos:station:NOAA.NDBC:FWYF1:1,2015-10-12T03:00:00Z,25.5910,-80.0970,43.9,4.6,250.0,4.6,'1111122,1111122,1111122' 
NDBC,ioos:station:NOAA.NDBC:FWYF1:1,2015-10-12T04:00:00Z,25.5910,-80.0970,43.9,4.1,270.0,4.1,'1111122,1111122,1111122' 
NDBC,ioos:station:NOAA.NDBC:FWYF1:1,2015-10-12T05:00:00Z,25.5910,-80.0970,43.9,4.1,270.0,4.1,'1111122,1111122,1111122' 
NDBC,ioos:station:NOAA.NDBC:FWYF1:1,2015-10-12T06:00:00Z,25.5910,-80.0970,43.9,4.6,170.0,5.7,'1111122,1111122,1111122' 
NDBC,ioos:station:NOAA.NDBC:FWYF1:1,2015-10-12T07:00:00Z,25.5910,-80.0970,43.9,2.1,230.0,2.1,'1111122,1111122,1111122' 
NDBC,ioos:station:NOAA.NDBC:FWYF1:1,2015-10-12T08:00:00Z,25.5910,-80.0970,43.9,4.1,270.0,4.1,'1111122,1111122,1111122' 
NDBC,ioos:station:NOAA.NDBC:FWYF1:1,2015-10-12T11:00:00Z,25.5910,-80.0970,43.9,5.7,300.0,6.2,'1111122,1111122,1111122' 
NDBC,ioos:station:NOAA.NDBC:FWYF1:1,2015-10-12T12:00:00Z,25.5910,-80.0970,43.9,5.1,290.0,5.7,'1111122,1111122,1111122' 